Hourly Data Report for October 19, 2019

All times are specified in Local Standard Time (LST). Add 1 hour to adjust for Daylight Saving Time where and when it is observed.

WOODSTOCK NEWBRIDGE
NEW BRUNSWICK
Current Station Operator: ECCC - MSC

46°09'08.000" N
67°32'34.000" W
154.00 m
8105603
71606
EWD

Download Data

Hourly Data (October 2019)
Hourly Data Report for October 19, 2019
TIME Temp Definition
°C
Dew Point Definition
°C
Rel Hum Definition
%
Wind Dir Definition
10's deg

Wind Spd Definition
km/h
Visibility Definition
km
Stn Press Definition
kPa
Hmdx Definition


Wind Chill Definition


Weather Definition


00:00 6.3 3.5 82 28 6   98.74     LegendNANA
01:00 6.7 3.8 82 27 8   98.80     LegendNANA
02:00 6.7 4.0 83 27 10   98.85     LegendNANA
03:00 6.4 3.7 83 27 10   98.88     LegendNANA
04:00 6.4 3.7 83 28 11   98.91     LegendNANA
05:00 5.5 3.2 85 27 8   98.98     LegendNANA
06:00 5.2 3.1 86 27 10   99.03     LegendNANA
07:00 5.0 2.9 86 27 11   99.05     LegendNANA
08:00 5.8 2.8 81 28 13   99.15     LegendNANA
09:00 7.5 2.7 72 28 13   99.17     LegendNANA
10:00 7.7 2.1 67 29 13   99.21     LegendNANA
11:00 7.5 1.9 68 30 12   99.26     LegendNANA
12:00 8.1 2.0 65 28 12   99.31     LegendNANA
13:00 8.7 1.8 62 29 12   99.31     LegendNANA
14:00 9.0 1.4 59 30 14   99.32     LegendNANA
15:00 9.1 1.4 58 29 12   99.36     LegendNANA
16:00 8.7 1.5 61 29 12   99.41     LegendNANA
17:00 8.3 1.0 60 30 10   99.47     LegendNANA
18:00 8.0 0.7 60 29 11   99.53     LegendNANA
19:00 6.8 0.7 65 31 7   99.60     LegendNANA
20:00 4.9 0.3 72 30 3   99.67     LegendNANA
21:00 4.9 0.5 73 29 5   99.71     LegendNANA
22:00 2.6 -0.1 82 29 4   99.73     LegendNANA
23:00 0.7 -1.0 89 0 1   99.80     LegendNANA

Notes on Data Quality.

Legend

  • E = Estimated
  • M = Missing
  • NA = Not Available
Date modified: